EW9106 Weather Reports


time (UTC)temp
C
wind
direction
speed
KPH
gust
KPH
rain 1hr
cm
rain 24hr
cm
rain mn
cm
humidity
%
barometer
mb
20260508164553 11 202 0.0 0.0 0.00 0.00 0.00 82 1010.0
20260508164052 12 219 0.0 0.0 0.00 0.00 0.00 82 1010.0
20260508163552 12 224 0.0 4.8 0.00 0.00 0.00 80 1010.0
20260508163053 12 243 0.0 4.8 0.00 0.00 0.00 79 1010.2
20260508161552 12 225 0.0 4.8 0.00 0.00 0.00 76 1010.1
20260508161052 12 241 0.0 1.6 0.00 0.00 0.00 77 1010.1
20260508160552 12 277 0.0 0.0 0.00 0.00 0.00 77 1010.0
20260508155552 12 246 0.0 0.0 0.00 0.00 0.00 76 1010.0
20260508155052 12 245 0.0 0.0 0.00 0.00 0.00 76 1010.0
20260508154052 12 279 0.0 0.0 0.00 0.00 0.00 76 1009.9
20260508153552 12 273 0.0 0.0 0.00 0.00 0.00 75 1009.9
20260508153052 12 246 0.0 0.0 0.00 0.00 0.00 75 1009.8
20260508152553 12 257 0.0 1.6 0.00 0.00 0.00 75 1009.8
20260508152052 12 280 0.0 0.0 0.00 0.00 0.00 74 1009.9
20260508151552 12 278 0.0 3.2 0.00 0.00 0.00 74 1010.0
20260508151053 12 281 0.0 0.0 0.00 0.00 0.00 74 1009.9
20260508150552 12 306 0.0 4.8 0.00 0.00 0.00 73 1009.9
20260508150052 13 292 0.0 9.7 0.00 0.00 0.00 73 1009.9
20260508145052 12 282 0.0 0.0 0.00 0.00 0.00 75 1010.0
20260508144552 12 279 0.0 0.0 0.00 0.00 0.00 74 1009.9
20260508144052 12 278 1.6 4.8 0.00 0.00 0.00 75 1009.9
20260508143553 12 275 0.0 0.0 0.00 0.00 0.00 76 1010.0
20260508143052 12 224 0.0 0.0 0.00 0.00 0.00 76 1010.2
20260508142553 12 239 0.0 0.0 0.00 0.00 0.00 75 1010.1
20260508142052 12 283 0.0 0.0 0.00 0.00 0.00 74 1010.1
20260508141552 12 270 0.0 0.0 0.00 0.00 0.00 75 1009.9
20260508140552 12 228 0.0 0.0 0.00 0.00 0.00 76 1010.0
20260508140052 12 286 0.0 0.0 0.00 0.00 0.00 74 1009.9
20260508135552 12 279 0.0 0.0 0.00 0.00 0.00 74 1009.9
20260508135053 12 239 0.0 0.0 0.00 0.00 0.00 74 1010.0
20260508134552 12 219 0.0 0.0 0.00 0.00 0.00 75 1010.0
20260508134052 12 222 0.0 0.0 0.00 0.00 0.00 76 1010.1
20260508133553 12 284 0.0 0.0 0.00 0.00 0.00 75 1010.0
20260508133052 11 298 0.0 0.0 0.00 0.00 0.00 76 1010.0
20260508132552 11 291 0.0 0.0 0.00 0.00 0.00 76 1010.1
20260508132053 11 284 0.0 0.0 0.00 0.00 0.00 75 1010.2
20260508131552 11 268 0.0 0.0 0.00 0.00 0.00 75 1010.2
20260508131053 11 229 0.0 0.0 0.00 0.00 0.00 77 1010.1
20260508130553 11 222 0.0 0.0 0.00 0.00 0.00 77 1010.1
20260508130052 11 254 0.0 0.0 0.00 0.00 0.00 79 1010.1
20260508125552 10 261 0.0 0.0 0.00 0.00 0.00 78 1010.2
20260508125052 10 248 0.0 0.0 0.00 0.00 0.00 80 1010.1
20260508124552 10 243 0.0 0.0 0.00 0.00 0.00 80 1010.1
20260508124052 10 220 0.0 0.0 0.00 0.00 0.00 80 1010.1
20260508123552 10 229 0.0 0.0 0.00 0.00 0.00 81 1010.2
20260508123053 10 234 0.0 0.0 0.00 0.00 0.00 83 1010.2
20260508122553 9 232 0.0 0.0 0.00 0.00 0.00 83 1010.2
20260508122053 9 233 0.0 0.0 0.00 0.00 0.00 83 1010.3
20260508121552 9 232 0.0 0.0 0.00 0.00 0.00 83 1010.3
20260508121052 9 230 0.0 0.0 0.00 0.00 0.00 84 1010.1
20260508120553 8 230 0.0 0.0 0.00 0.00 0.00 85 1010.1
20260508120052 8 228 0.0 0.0 0.00 0.00 0.00 85 1010.1
20260508115553 8 211 0.0 0.0 0.00 0.00 0.00 85 1010.0
20260508115052 8 229 0.0 0.0 0.00 0.00 0.00 85 1009.9
20260508114553 8 226 0.0 0.0 0.00 0.00 0.00 85 1009.8
20260508113554 8 222 0.0 0.0 0.00 0.00 0.00 88 1009.7
20260508113052 8 221 0.0 0.0 0.00 0.00 0.00 88 1009.6
20260508112553 7 222 0.0 0.0 0.00 0.00 0.00 90 1009.5
20260508110552 7 212 0.0 0.0 0.00 0.00 0.00 90 1009.2
20260508105053 7 179 0.0 0.0 0.00 0.00 0.00 90 1009.2
20260508104553 7 175 0.0 0.0 0.00 0.00 0.00 90 1009.2
20260508104053 7 174 0.0 0.0 0.00 0.00 0.00 90 1009.1
20260508103553 7 174 0.0 0.0 0.00 0.00 0.00 90 1009.1
20260508102553 7 166 0.0 0.0 0.00 0.00 0.00 91 1009.1
20260508102053 7 165 0.0 0.0 0.00 0.00 0.00 91 1009.1
20260508101052 7 163 0.0 0.0 0.00 0.00 0.00 90 1009.1
20260508100554 7 161 0.0 0.0 0.00 0.00 0.00 90 1009.2
20260508095552 7 161 0.0 0.0 0.00 0.00 0.00 90 1009.3
20260508095052 7 157 0.0 0.0 0.00 0.00 0.00 90 1009.3
20260508094053 7 198 0.0 0.0 0.00 0.00 0.00 90 1009.3
20260508093552 7 198 0.0 0.0 0.00 0.00 0.00 90 1009.3
20260508093053 7 196 0.0 0.0 0.00 0.00 0.00 90 1009.2
20260508092053 7 194 0.0 0.0 0.00 0.00 0.00 90 1009.3
20260508091552 8 190 0.0 4.8 0.00 0.00 0.00 90 1009.1
20260508091053 8 225 0.0 0.0 0.00 0.00 0.00 90 1009.1
20260508090553 8 207 0.0 0.0 0.00 0.00 0.00 90 1009.3
20260508090052 8 184 0.0 0.0 0.00 0.00 0.00 90 1009.2
20260508085552 8 198 0.0 0.0 0.00 0.00 0.00 90 1009.3
20260508085053 8 193 0.0 0.0 0.00 0.00 0.00 90 1009.2
20260508084552 8 193 0.0 0.0 0.00 0.00 0.00 90 1009.2
20260508083553 8 207 0.0 0.0 0.00 0.00 0.00 89 1009.3
20260508082553 8 209 0.0 0.0 0.00 0.00 0.00 89 1009.4
20260508081553 8 209 0.0 0.0 0.00 0.00 0.00 88 1009.6
20260508081054 8 209 0.0 1.6 0.00 0.00 0.00 88 1009.4
20260508080553 8 209 0.0 1.6 0.00 0.00 0.00 88 1009.5
20260508075553 8 187 0.0 0.0 0.00 0.00 0.00 88 1009.5
20260508075053 8 256 0.0 0.0 0.00 0.00 0.00 88 1009.4
20260508074553 8 256 0.0 0.0 0.00 0.00 0.00 88 1009.6
20260508073053 8 221 0.0 0.0 0.00 0.00 0.00 88 1009.6
20260508072554 8 219 1.6 4.8 0.00 0.00 0.00 88 1009.7
20260508072053 8 229 0.0 1.6 0.00 0.00 0.00 88 1009.6
20260508071553 8 227 0.0 0.0 0.00 0.00 0.00 88 1009.5
20260508070553 8 240 4.8 11.3 0.00 0.00 0.00 88 1009.4
20260508070053 8 244 0.0 0.0 0.00 0.00 0.00 88 1009.9
20260508065553 8 220 0.0 0.0 0.00 0.00 0.00 88 1009.7
20260508065053 8 213 0.0 0.0 0.00 0.00 0.00 88 1009.8
20260508064553 8 192 0.0 0.0 0.00 0.00 0.00 87 1009.8
20260508064052 8 189 0.0 0.0 0.00 0.00 0.00 87 1009.8
20260508063553 8 187 0.0 0.0 0.00 0.00 0.00 87 1009.9
20260508063053 8 219 0.0 0.0 0.00 0.00 0.00 87 1010.0
20260508062553 8 219 0.0 0.0 0.00 0.00 0.00 87 1010.1
20260508062052 8 215 0.0 0.0 0.00 0.00 0.00 87 1010.1
20260508061554 8 219 0.0 0.0 0.00 0.00 0.00 86 1010.0
20260508061053 8 216 0.0 0.0 0.00 0.00 0.00 87 1010.1
20260508060553 8 213 0.0 0.0 0.00 0.00 0.00 86 1010.1
20260508060053 8 212 0.0 0.0 0.00 0.00 0.00 86 1010.2
20260508055553 8 216 0.0 4.8 0.00 0.00 0.00 86 1010.1
20260508055053 8 219 0.0 1.6 0.00 0.00 0.00 86 1010.2
20260508054554 8 220 0.0 0.0 0.00 0.00 0.00 85 1010.2
20260508054053 8 220 0.0 0.0 0.00 0.00 0.00 84 1010.2
20260508053553 9 222 0.0 3.2 0.00 0.00 0.00 84 1010.3
20260508052553 9 265 0.0 0.0 0.00 0.00 0.00 83 1010.7
20260508052053 9 265 0.0 0.0 0.00 0.00 0.00 82 1010.7
20260508051553 9 227 0.0 0.0 0.00 0.00 0.00 82 1010.6
20260508051053 9 265 0.0 0.0 0.00 0.00 0.00 80 1011.1
20260508050552 9 251 0.0 0.0 0.00 0.00 0.00 79 1011.1
20260508050053 9 218 0.0 0.0 0.00 0.00 0.00 78 1011.0
20260508045053 9 221 0.0 0.0 0.00 0.00 0.00 76 1010.9
20260508044053 9 227 0.0 0.0 0.00 0.00 0.00 75 1010.8
20260508043553 10 219 0.0 0.0 0.00 0.00 0.00 75 1010.8
20260508042553 10 186 0.0 0.0 0.00 0.00 0.00 73 1010.7
20260508042053 10 182 0.0 0.0 0.00 0.00 0.00 73 1010.6
20260508041553 10 182 0.0 0.0 0.00 0.00 0.00 73 1010.3
20260508041053 10 182 0.0 0.0 0.00 0.00 0.00 72 1010.3
20260508040553 10 182 0.0 0.0 0.00 0.00 0.00 72 1010.3
20260508040053 10 182 0.0 0.0 0.00 0.00 0.00 72 1010.3
20260508035553 10 182 0.0 0.0 0.00 0.00 0.00 72 1010.2
20260508035054 10 182 0.0 0.0 0.00 0.00 0.00 72 1010.2
20260508034553 10 182 0.0 1.6 0.00 0.00 0.00 71 1010.1
20260508034053 10 184 0.0 0.0 0.00 0.00 0.00 71 1010.4
20260508033554 10 183 0.0 0.0 0.00 0.00 0.00 71 1010.6
20260508033053 10 183 0.0 0.0 0.00 0.00 0.00 70 1010.6
20260508032053 10 183 0.0 0.0 0.00 0.00 0.00 71 1010.4
20260508031554 10 181 0.0 0.0 0.00 0.00 0.00 71 1010.4
20260508031053 10 256 0.0 0.0 0.00 0.00 0.00 71 1010.6
20260508030553 10 256 0.0 0.0 0.00 0.00 0.00 71 1010.6
20260508030053 10 256 0.0 0.0 0.00 0.00 0.00 71 1010.7
20260508025554 10 256 0.0 0.0 0.00 0.00 0.00 71 1010.7
20260508025053 10 256 0.0 0.0 0.00 0.00 0.00 71 1010.8
20260508024553 10 256 0.0 0.0 0.00 0.00 0.00 72 1010.9
20260508023054 10 301 0.0 0.0 0.00 0.00 0.00 70 1011.0
20260508022553 10 301 0.0 0.0 0.00 0.00 0.00 70 1010.9
20260508022053 10 301 0.0 0.0 0.00 0.00 0.00 70 1011.0
20260508020553 11 301 0.0 0.0 0.00 0.00 0.00 68 1010.8
20260508020053 11 301 0.0 0.0 0.00 0.00 0.00 67 1010.9
20260508015553 11 301 0.0 0.0 0.00 0.00 0.00 64 1010.9
20260508015053 11 301 0.0 0.0 0.00 0.00 0.00 62 1010.9
20260508014554 11 301 0.0 0.0 0.00 0.00 0.00 62 1010.9
20260508014054 11 301 0.0 0.0 0.00 0.00 0.00 61 1010.9
20260508013554 11 301 0.0 0.0 0.00 0.00 0.00 61 1010.8
20260508012553 11 298 0.0 0.0 0.00 0.00 0.00 60 1010.7
20260508012054 11 298 0.0 0.0 0.00 0.00 0.00 59 1010.8
20260508011553 11 306 0.0 0.0 0.00 0.00 0.00 59 1010.7
20260508011053 11 304 0.0 0.0 0.00 0.00 0.00 58 1010.6
20260508010553 11 275 0.0 0.0 0.00 0.00 0.00 57 1010.6
20260508005553 11 292 0.0 0.0 0.00 0.00 0.00 54 1010.6
20260508005053 11 280 0.0 0.0 0.00 0.00 0.00 54 1010.5
20260508004553 11 238 0.0 4.8 0.00 0.00 0.00 55 1010.5
20260508004054 12 263 0.0 3.2 0.00 0.00 0.00 53 1010.4
20260508003554 12 270 0.0 0.0 0.00 0.00 0.00 53 1010.4
20260508002553 12 32 0.0 0.0 0.00 0.00 0.00 51 1010.2
20260508002053 12 324 0.0 0.0 0.00 0.00 0.00 50 1010.2
20260508001554 12 294 0.0 0.0 0.00 0.00 0.00 48 1010.1
20260508001053 12 296 0.0 0.0 0.00 0.00 0.00 49 1010.1
20260508000553 12 285 0.0 0.0 0.00 0.00 0.00 47 1010.0
20260508000054 12 264 0.0 0.0 0.00 0.00 0.00 47 1010.1
20260507235554 12 35 0.0 0.0 0.00 0.00 0.00 46 1009.9
20260507233553 13 286 0.0 0.0 0.00 0.00 0.00 45 1009.6
20260507233055 13 284 0.0 0.0 0.00 0.00 0.00 45 1009.6
20260507232553 13 284 0.0 0.0 0.00 0.00 0.00 44 1009.5
20260507232053 13 284 0.0 0.0 0.00 0.00 0.00 43 1009.4
20260507231554 13 284 0.0 0.0 0.00 0.00 0.00 44 1009.5
20260507231053 13 275 0.0 0.0 0.00 0.00 0.00 45 1009.6
20260507230554 13 275 0.0 0.0 0.00 0.00 0.00 42 1009.7
20260507230054 13 261 0.0 0.0 0.00 0.00 0.00 44 1009.7
20260507225554 13 290 0.0 0.0 0.00 0.00 0.00 42 1009.7
20260507225054 13 228 0.0 0.0 0.00 0.00 0.00 42 1009.7
20260507224554 13 296 0.0 0.0 0.00 0.00 0.00 43 1009.8
20260507224053 13 284 0.0 0.0 0.00 0.00 0.00 43 1009.8
20260507223554 13 284 0.0 0.0 0.00 0.00 0.00 42 1009.8
20260507223053 13 285 0.0 0.0 0.00 0.00 0.00 42 1009.9
20260507222554 13 346 0.0 0.0 0.00 0.00 0.00 42 1009.9
20260507222054 13 346 0.0 0.0 0.00 0.00 0.00 42 1009.8
20260507221553 13 293 0.0 0.0 0.00 0.00 0.00 40 1009.9
20260507221055 13 283 0.0 0.0 0.00 0.00 0.00 42 1009.9
20260507220553 13 24 0.0 0.0 0.00 0.00 0.00 44 1009.9
20260507220054 13 285 0.0 0.0 0.00 0.00 0.00 42 1009.9
20260507215554 13 324 0.0 0.0 0.00 0.00 0.00 41 1009.8
20260507215053 13 293 0.0 0.0 0.00 0.00 0.00 41 1009.8
20260507214054 13 332 0.0 0.0 0.00 0.00 0.00 44 1009.7
20260507213554 13 352 0.0 0.0 0.00 0.00 0.00 43 1009.7
20260507213053 13 298 0.0 0.0 0.00 0.00 0.00 42 1009.7
20260507212553 13 289 0.0 0.0 0.00 0.00 0.00 43 1009.8
20260507212054 13 293 0.0 1.6 0.00 0.00 0.00 42 1009.8
20260507211553 13 288 0.0 0.0 0.00 0.00 0.00 41 1009.7
20260507211054 13 281 0.0 0.0 0.00 0.00 0.00 43 1009.7
20260507210054 13 304 0.0 0.0 0.00 0.00 0.00 42 1009.7
20260507205554 13 299 0.0 1.6 0.00 0.00 0.00 40 1009.8
20260507205054 13 318 0.0 0.0 0.00 0.00 0.00 41 1009.7
20260507204554 13 268 0.0 0.0 0.00 0.00 0.00 44 1009.7
20260507204053 13 287 0.0 0.0 0.00 0.00 0.00 43 1009.8
20260507203555 13 301 0.0 0.0 0.00 0.00 0.00 43 1009.8
20260507203053 13 315 0.0 0.0 0.00 0.00 0.00 44 1010.0
20260507202553 13 316 0.0 0.0 0.00 0.00 0.00 44 1009.9
20260507202054 13 291 0.0 0.0 0.00 0.00 0.00 42 1009.9
20260507201054 13 325 0.0 11.3 0.00 0.00 0.00 44 1009.9
20260507200054 13 344 0.0 0.0 0.00 0.00 0.00 43 1009.8
20260507195554 12 305 0.0 4.8 0.00 0.00 0.00 43 1009.8
20260507195054 12 286 0.0 0.0 0.00 0.00 0.00 44 1009.8
20260507194555 12 290 0.0 4.8 0.00 0.00 0.00 44 1010.0
20260507193554 13 293 0.0 0.0 0.00 0.00 0.00 46 1009.8
20260507193054 13 292 0.0 0.0 0.00 0.00 0.00 43 1009.9
20260507192554 13 297 0.0 0.0 0.00 0.00 0.00 45 1010.0
20260507192055 12 297 0.0 4.8 0.00 0.00 0.00 47 1009.9
20260507191554 12 293 0.0 9.7 0.00 0.00 0.00 43 1010.2
20260507191055 12 274 0.0 4.8 0.00 0.00 0.00 45 1010.1
20260507190554 12 298 0.0 4.8 0.00 0.00 0.00 45 1010.2
20260507190054 12 286 0.0 4.8 0.00 0.00 0.00 44 1010.2
20260507185054 12 318 0.0 0.0 0.00 0.00 0.00 46 1010.1
20260507184554 12 279 0.0 0.0 0.00 0.00 0.00 47 1010.2
20260507184054 12 271 0.0 0.0 0.00 0.00 0.00 48 1010.3
20260507183054 12 316 0.0 0.0 0.00 0.00 0.00 46 1010.5
20260507182554 12 294 0.0 0.0 0.00 0.00 0.00 49 1010.5
20260507182053 13 274 0.0 0.0 0.00 0.00 0.00 49 1010.6
20260507181554 12 280 0.0 0.0 0.00 0.00 0.00 50 1010.5
20260507180554 12 290 0.0 0.0 0.00 0.00 0.00 50 1010.5
20260507180055 12 293 0.0 0.0 0.00 0.00 0.00 49 1010.6
20260507175554 12 278 0.0 0.0 0.00 0.00 0.00 54 1010.6
20260507175054 12 295 0.0 1.6 0.00 0.00 0.00 53 1010.6
20260507174554 12 290 0.0 0.0 0.00 0.00 0.00 51 1010.6
20260507174054 12 230 0.0 0.0 0.00 0.00 0.00 52 1010.6
20260507173553 12 289 0.0 0.0 0.00 0.00 0.00 53 1010.5
20260507172554 12 310 0.0 4.8 0.00 0.00 0.00 51 1010.8
20260507172054 12 263 1.6 11.3 0.00 0.00 0.00 53 1010.8
20260507171554 12 233 0.0 4.8 0.00 0.00 0.00 54 1010.8
20260507171054 11 308 0.0 0.0 0.00 0.00 0.00 54 1010.9
20260507170554 11 268 0.0 0.0 0.00 0.00 0.00 53 1011.1
20260507170055 11 301 0.0 0.0 0.00 0.00 0.00 56 1011.1
20260507165554 11 300 0.0 14.5 0.00 0.00 0.00 55 1011.1